| time (UTC) | temp F | wind direction | speed MPH | gust MPH | rain 1hr in | rain 24hr in | rain mn in | humidity % | barometer mb |
| 20260906214306 | 51 | 289 | 2.0 | 5.0 | 0.00 | 0.00 | 0.00 | 84 | 1025.7 |
| 20260906213806 | 51 | 270 | 1.0 | 3.0 | 0.00 | 0.00 | 0.00 | 86 | 1025.7 |
| 20260906212807 | 50 | 270 | 1.0 | 5.0 | 0.00 | 0.00 | 0.00 | 87 | 1025.3 |
| 20260906212306 | 50 | 291 | 1.0 | 3.0 | 0.00 | 0.00 | 0.00 | 88 | 1025.3 |
| 20260906211806 | 50 | 314 | 1.0 | 7.0 | 0.00 | 0.00 | 0.00 | 88 | 1025.1 |
| 20260906211307 | 49 | 292 | 1.0 | 3.0 | 0.00 | 0.00 | 0.00 | 89 | 1025.2 |
| 20260906210808 | 49 | 44 | 1.0 | 2.0 | 0.00 | 0.00 | 0.00 | 89 | 1025.1 |
| 20260906210307 | 49 | 270 | 1.0 | 2.0 | 0.00 | 0.00 | 0.00 | 89 | 1025.0 |
| 20260906205807 | 49 | 182 | 1.0 | 5.0 | 0.00 | 0.00 | 0.00 | 89 | 1025.1 |
| 20260906204806 | 49 | 276 | 1.0 | 2.0 | 0.00 | 0.00 | 0.00 | 89 | 1024.9 |
| 20260906204307 | 50 | 250 | 0.0 | 2.0 | 0.00 | 0.00 | 0.00 | 89 | 1024.7 |
| 20260906203806 | 50 | 270 | 1.0 | 2.0 | 0.00 | 0.00 | 0.00 | 89 | 1024.8 |
| 20260906203306 | 50 | 250 | 1.0 | 3.0 | 0.00 | 0.00 | 0.00 | 89 | 1024.7 |
| 20260906202806 | 50 | 270 | 1.0 | 3.0 | 0.00 | 0.00 | 0.00 | 89 | 1024.6 |
| 20260906202307 | 50 | 294 | 1.0 | 3.0 | 0.00 | 0.00 | 0.00 | 89 | 1024.6 |
| 20260906201806 | 50 | 248 | 2.0 | 3.0 | 0.00 | 0.00 | 0.00 | 89 | 1024.4 |
| 20260906201307 | 51 | 292 | 1.0 | 5.0 | 0.00 | 0.00 | 0.00 | 89 | 1024.3 |
| 20260906200807 | 51 | 269 | 1.0 | 5.0 | 0.00 | 0.00 | 0.00 | 89 | 1024.4 |
| 20260906200307 | 51 | 244 | 2.0 | 6.0 | 0.00 | 0.00 | 0.00 | 89 | 1024.3 |
| 20260906195806 | 51 | 270 | 2.0 | 6.0 | 0.00 | 0.00 | 0.00 | 89 | 1024.2 |
| 20260906194307 | 51 | 335 | 1.0 | 6.0 | 0.00 | 0.00 | 0.00 | 88 | 1024.3 |
| 20260906193806 | 52 | 225 | 2.0 | 6.0 | 0.00 | 0.00 | 0.00 | 88 | 1024.1 |
| 20260906193308 | 52 | 248 | 2.0 | 6.0 | 0.00 | 0.00 | 0.00 | 88 | 1024.2 |
| 20260906192806 | 52 | 314 | 2.0 | 7.0 | 0.00 | 0.00 | 0.00 | 87 | 1024.3 |
| 20260906192307 | 52 | 22 | 2.0 | 7.0 | 0.00 | 0.00 | 0.00 | 87 | 1024.2 |
| 20260906190306 | 53 | 244 | 2.0 | 3.0 | 0.00 | 0.00 | 0.00 | 85 | 1024.0 |
| 20260906185806 | 53 | 270 | 2.0 | 5.0 | 0.00 | 0.00 | 0.00 | 85 | 1024.1 |
| 20260906185306 | 53 | 271 | 2.0 | 5.0 | 0.00 | 0.00 | 0.00 | 85 | 1023.9 |
| 20260906184807 | 53 | 270 | 1.0 | 3.0 | 0.00 | 0.00 | 0.00 | 85 | 1023.9 |
| 20260906183306 | 53 | 247 | 3.0 | 5.0 | 0.00 | 0.00 | 0.00 | 85 | 1024.0 |
| 20260906182307 | 53 | 268 | 1.0 | 3.0 | 0.00 | 0.00 | 0.00 | 85 | 1023.9 |
| 20260906181806 | 53 | 250 | 2.0 | 3.0 | 0.00 | 0.00 | 0.00 | 85 | 1023.7 |
| 20260906180807 | 53 | 248 | 2.0 | 5.0 | 0.00 | 0.00 | 0.00 | 83 | 1023.6 |
| 20260906180306 | 53 | 225 | 2.0 | 5.0 | 0.00 | 0.00 | 0.00 | 83 | 1023.6 |
| 20260906175807 | 53 | 19 | 2.0 | 5.0 | 0.00 | 0.00 | 0.00 | 83 | 1023.5 |
| 20260906175307 | 53 | 270 | 1.0 | 1.0 | 0.00 | 0.00 | 0.00 | 82 | 1023.2 |
| 20260906174806 | 53 | 270 | 0.0 | 1.0 | 0.00 | 0.00 | 0.00 | 82 | 1023.2 |
| 20260906174306 | 53 | 292 | 0.0 | 1.0 | 0.00 | 0.00 | 0.00 | 81 | 1023.3 |
| 20260906173806 | 53 | 335 | 0.0 | 2.0 | 0.00 | 0.00 | 0.00 | 81 | 1023.2 |
| 20260906173308 | 53 | 248 | 0.0 | 2.0 | 0.00 | 0.00 | 0.00 | 81 | 1023.3 |
| 20260906172807 | 53 | 270 | 1.0 | 2.0 | 0.00 | 0.00 | 0.00 | 81 | 1023.4 |
| 20260906172307 | 54 | 248 | 1.0 | 5.0 | 0.00 | 0.00 | 0.00 | 80 | 1023.2 |
| 20260906171306 | 54 | 248 | 0.0 | 2.0 | 0.00 | 0.00 | 0.00 | 80 | 1023.3 |
| 20260906170307 | 54 | 251 | 2.0 | 3.0 | 0.00 | 0.00 | 0.00 | 80 | 1023.5 |
| 20260906165806 | 54 | 230 | 1.0 | 2.0 | 0.00 | 0.00 | 0.00 | 80 | 1023.4 |
| 20260906165307 | 54 | 245 | 2.0 | 5.0 | 0.00 | 0.00 | 0.00 | 81 | 1023.4 |
| 20260906164806 | 54 | 248 | 1.0 | 2.0 | 0.00 | 0.00 | 0.00 | 81 | 1023.4 |
| 20260906164308 | 54 | 288 | 1.0 | 3.0 | 0.00 | 0.00 | 0.00 | 81 | 1023.4 |
| 20260906163807 | 54 | 231 | 1.0 | 2.0 | 0.00 | 0.00 | 0.00 | 81 | 1023.4 |
| 20260906163306 | 54 | 292 | 0.0 | 2.0 | 0.00 | 0.00 | 0.00 | 81 | 1023.3 |
| 20260906162306 | 54 | 228 | 1.0 | 2.0 | 0.00 | 0.00 | 0.00 | 81 | 1023.5 |
| 20260906161807 | 54 | 270 | 1.0 | 1.0 | 0.00 | 0.00 | 0.00 | 80 | 1023.6 |
| 20260906161312 | 54 | 290 | 0.0 | 2.0 | 0.00 | 0.00 | 0.00 | 80 | 1023.7 |
| 20260906160807 | 54 | 249 | 0.0 | 1.0 | 0.00 | 0.00 | 0.00 | 80 | 1023.5 |
| 20260906160306 | 54 | 248 | 1.0 | 1.0 | 0.00 | 0.00 | 0.00 | 79 | 1023.7 |
| 20260906155307 | 54 | 290 | 1.0 | 2.0 | 0.00 | 0.00 | 0.00 | 79 | 1023.7 |
| 20260906154807 | 55 | 269 | 0.0 | 1.0 | 0.00 | 0.00 | 0.00 | 79 | 1023.6 |
| 20260906154309 | 55 | 295 | 0.0 | 2.0 | 0.00 | 0.00 | 0.00 | 78 | 1023.7 |
| 20260906153306 | 55 | 270 | 1.0 | 3.0 | 0.00 | 0.00 | 0.00 | 78 | 1023.6 |
| 20260906152806 | 55 | 251 | 1.0 | 2.0 | 0.00 | 0.00 | 0.00 | 78 | 1023.7 |
| 20260906152307 | 55 | 270 | 1.0 | 3.0 | 0.00 | 0.00 | 0.00 | 78 | 1023.9 |
| 20260906151807 | 55 | 269 | 1.0 | 1.0 | 0.00 | 0.00 | 0.00 | 78 | 1023.6 |
| 20260906151306 | 55 | 248 | 0.0 | 1.0 | 0.00 | 0.00 | 0.00 | 77 | 1023.7 |
| 20260906150806 | 55 | 271 | 0.0 | 2.0 | 0.00 | 0.00 | 0.00 | 77 | 1023.7 |
| 20260906150307 | 55 | 249 | 1.0 | 2.0 | 0.00 | 0.00 | 0.00 | 77 | 1023.6 |
| 20260906144810 | 55 | 204 | 1.0 | 2.0 | 0.00 | 0.00 | 0.00 | 76 | 1023.6 |
| 20260906144307 | 55 | 226 | 2.0 | 5.0 | 0.00 | 0.00 | 0.00 | 76 | 1023.6 |
| 20260906143807 | 55 | 248 | 2.0 | 7.0 | 0.00 | 0.00 | 0.00 | 75 | 1023.6 |
| 20260906143306 | 56 | 136 | 2.0 | 7.0 | 0.00 | 0.00 | 0.00 | 75 | 1023.6 |
| 20260906142806 | 56 | 267 | 1.0 | 6.0 | 0.00 | 0.00 | 0.00 | 74 | 1023.6 |
| 20260906141806 | 56 | 225 | 1.0 | 2.0 | 0.00 | 0.00 | 0.00 | 71 | 1023.5 |
| 20260906141306 | 56 | 270 | 1.0 | 2.0 | 0.00 | 0.00 | 0.00 | 70 | 1023.5 |
| 20260906140807 | 56 | 269 | 1.0 | 1.0 | 0.00 | 0.00 | 0.00 | 70 | 1023.3 |
| 20260906140308 | 56 | 225 | 0.0 | 1.0 | 0.00 | 0.00 | 0.00 | 69 | 1023.3 |
| 20260906135806 | 56 | 248 | 1.0 | 1.0 | 0.00 | 0.00 | 0.00 | 69 | 1023.4 |
| 20260906135307 | 56 | 248 | 0.0 | 1.0 | 0.00 | 0.00 | 0.00 | 68 | 1023.3 |
| 20260906134806 | 56 | 270 | 0.0 | 1.0 | 0.00 | 0.00 | 0.00 | 67 | 1023.4 |
| 20260906134306 | 56 | 264 | 1.0 | 3.0 | 0.00 | 0.00 | 0.00 | 67 | 1023.3 |
| 20260906133307 | 56 | 225 | 0.0 | 2.0 | 0.00 | 0.00 | 0.00 | 68 | 1023.5 |
| 20260906132807 | 56 | 247 | 1.0 | 2.0 | 0.00 | 0.00 | 0.00 | 68 | 1023.5 |
| 20260906132307 | 56 | 248 | 2.0 | 5.0 | 0.00 | 0.00 | 0.00 | 67 | 1023.8 |
| 20260906130306 | 57 | 289 | 1.0 | 6.0 | 0.00 | 0.00 | 0.00 | 68 | 1023.7 |
| 20260906125811 | 57 | 181 | 2.0 | 7.0 | 0.00 | 0.00 | 0.00 | 68 | 1023.8 |
| 20260906125307 | 56 | 184 | 3.0 | 9.0 | 0.00 | 0.00 | 0.00 | 69 | 1023.5 |
| 20260906124806 | 56 | 247 | 5.0 | 9.0 | 0.00 | 0.00 | 0.00 | 68 | 1023.7 |
| 20260906124306 | 56 | 136 | 1.0 | 5.0 | 0.00 | 0.00 | 0.00 | 71 | 1023.4 |
| 20260906123807 | 55 | 270 | 1.0 | 3.0 | 0.00 | 0.00 | 0.00 | 73 | 1023.8 |
| 20260906123310 | 55 | 268 | 1.0 | 2.0 | 0.00 | 0.00 | 0.00 | 74 | 1023.5 |
| 20260906122807 | 55 | 271 | 1.0 | 2.0 | 0.00 | 0.00 | 0.00 | 75 | 1023.6 |
| 20260906122307 | 55 | 270 | 1.0 | 5.0 | 0.00 | 0.00 | 0.00 | 76 | 1023.5 |
| 20260906121307 | 56 | 335 | 1.0 | 2.0 | 0.00 | 0.00 | 0.00 | 77 | 1023.7 |
| 20260906120307 | 56 | 268 | 1.0 | 3.0 | 0.00 | 0.00 | 0.00 | 77 | 1023.8 |
| 20260906115807 | 56 | 226 | 1.0 | 5.0 | 0.00 | 0.00 | 0.00 | 77 | 1023.8 |
| 20260906115306 | 56 | 270 | 1.0 | 5.0 | 0.00 | 0.00 | 0.00 | 77 | 1023.7 |
| 20260906114806 | 56 | 248 | 2.0 | 6.0 | 0.00 | 0.00 | 0.00 | 77 | 1023.8 |
| 20260906113807 | 56 | 248 | 1.0 | 6.0 | 0.00 | 0.00 | 0.00 | 77 | 1023.7 |
| 20260906112808 | 56 | 203 | 3.0 | 6.0 | 0.00 | 0.00 | 0.00 | 76 | 1023.6 |
| 20260906112307 | 56 | 249 | 2.0 | 5.0 | 0.00 | 0.00 | 0.00 | 76 | 1023.4 |
| 20260906111806 | 56 | 226 | 2.0 | 3.0 | 0.00 | 0.00 | 0.00 | 76 | 1023.5 |
| 20260906110807 | 56 | 181 | 3.0 | 6.0 | 0.00 | 0.00 | 0.00 | 75 | 1023.4 |
| 20260906110306 | 56 | 202 | 3.0 | 7.0 | 0.00 | 0.00 | 0.00 | 75 | 1023.5 |
| 20260906105307 | 56 | 203 | 3.0 | 7.0 | 0.00 | 0.00 | 0.00 | 77 | 1023.6 |
| 20260906104806 | 56 | 270 | 2.0 | 6.0 | 0.00 | 0.00 | 0.00 | 77 | 1023.6 |
| 20260906103306 | 56 | 224 | 3.0 | 8.0 | 0.00 | 0.00 | 0.00 | 78 | 1023.4 |
| 20260906102809 | 56 | 247 | 3.0 | 7.0 | 0.00 | 0.00 | 0.00 | 79 | 1023.6 |
| 20260906101806 | 56 | 225 | 3.0 | 8.0 | 0.00 | 0.00 | 0.00 | 79 | 1023.6 |
| 20260906101307 | 56 | 268 | 5.0 | 8.0 | 0.00 | 0.00 | 0.00 | 78 | 1023.5 |
| 20260906100807 | 56 | 290 | 3.0 | 9.0 | 0.00 | 0.00 | 0.00 | 77 | 1023.3 |
| 20260906100306 | 56 | 246 | 3.0 | 9.0 | 0.00 | 0.00 | 0.00 | 78 | 1023.2 |
| 20260906095307 | 57 | 293 | 3.0 | 8.0 | 0.00 | 0.00 | 0.00 | 77 | 1023.4 |
| 20260906094806 | 57 | 270 | 4.0 | 8.0 | 0.00 | 0.00 | 0.00 | 76 | 1023.1 |
| 20260906094306 | 57 | 246 | 3.0 | 9.0 | 0.00 | 0.00 | 0.00 | 74 | 1023.0 |
| 20260906093807 | 57 | 249 | 3.0 | 8.0 | 0.00 | 0.00 | 0.00 | 74 | 1023.1 |
| 20260906093309 | 57 | 205 | 2.0 | 6.0 | 0.00 | 0.00 | 0.00 | 73 | 1023.1 |
| 20260906092807 | 57 | 248 | 2.0 | 5.0 | 0.00 | 0.00 | 0.00 | 74 | 1023.1 |
| 20260906092307 | 57 | 267 | 1.0 | 5.0 | 0.00 | 0.00 | 0.00 | 74 | 1023.0 |
| 20260906091807 | 57 | 270 | 1.0 | 3.0 | 0.00 | 0.00 | 0.00 | 74 | 1022.8 |
| 20260906091306 | 57 | 269 | 1.0 | 5.0 | 0.00 | 0.00 | 0.00 | 74 | 1023.0 |
| 20260906090807 | 57 | 159 | 1.0 | 3.0 | 0.00 | 0.00 | 0.00 | 74 | 1022.8 |
| 20260906090307 | 57 | 227 | 1.0 | 2.0 | 0.00 | 0.00 | 0.00 | 73 | 1022.8 |
| 20260906085807 | 57 | 250 | 1.0 | 2.0 | 0.00 | 0.00 | 0.00 | 73 | 1022.4 |
| 20260906085307 | 58 | 260 | 2.0 | 5.0 | 0.00 | 0.00 | 0.00 | 73 | 1022.7 |
| 20260906084807 | 58 | 268 | 1.0 | 5.0 | 0.00 | 0.00 | 0.00 | 72 | 1022.6 |
| 20260906084307 | 58 | 250 | 1.0 | 6.0 | 0.00 | 0.00 | 0.00 | 71 | 1022.6 |
| 20260906083807 | 58 | 270 | 2.0 | 6.0 | 0.00 | 0.00 | 0.00 | 70 | 1022.4 |
| 20260906083308 | 58 | 268 | 1.0 | 3.0 | 0.00 | 0.00 | 0.00 | 69 | 1022.2 |
| 20260906082808 | 59 | 225 | 1.0 | 8.0 | 0.00 | 0.00 | 0.00 | 67 | 1022.4 |
| 20260906082308 | 59 | 182 | 3.0 | 8.0 | 0.00 | 0.00 | 0.00 | 67 | 1022.2 |
| 20260906081806 | 59 | 269 | 2.0 | 8.0 | 0.00 | 0.00 | 0.00 | 66 | 1022.1 |
| 20260906081308 | 59 | 270 | 3.0 | 8.0 | 0.00 | 0.00 | 0.00 | 65 | 1022.2 |
| 20260906080806 | 59 | 187 | 1.0 | 3.0 | 0.00 | 0.00 | 0.00 | 66 | 1022.3 |
| 20260906080307 | 59 | 267 | 2.0 | 6.0 | 0.00 | 0.00 | 0.00 | 66 | 1022.1 |
| 20260906075809 | 59 | 160 | 2.0 | 5.0 | 0.00 | 0.00 | 0.00 | 66 | 1022.0 |
| 20260906073806 | 60 | 270 | 3.0 | 6.0 | 0.00 | 0.00 | 0.00 | 67 | 1021.8 |
| 20260906073307 | 60 | 226 | 3.0 | 6.0 | 0.00 | 0.00 | 0.00 | 66 | 1021.8 |
| 20260906072807 | 60 | 272 | 3.0 | 6.0 | 0.00 | 0.00 | 0.00 | 66 | 1021.9 |
| 20260906072306 | 60 | 271 | 1.0 | 7.0 | 0.00 | 0.00 | 0.00 | 66 | 1021.8 |
| 20260906071806 | 60 | 247 | 3.0 | 9.0 | 0.00 | 0.00 | 0.00 | 66 | 1021.8 |
| 20260906070307 | 60 | 272 | 3.0 | 7.0 | 0.00 | 0.01 | 0.00 | 65 | 1021.6 |
| 20260906065806 | 60 | 249 | 3.0 | 6.0 | 0.00 | 0.02 | 0.00 | 64 | 1021.6 |
| 20260906065308 | 61 | 270 | 2.0 | 8.0 | 0.00 | 0.02 | 0.00 | 64 | 1021.6 |
| 20260906064806 | 61 | 226 | 3.0 | 5.0 | 0.00 | 0.02 | 0.00 | 64 | 1021.4 |
| 20260906064306 | 61 | 248 | 3.0 | 6.0 | 0.00 | 0.02 | 0.00 | 64 | 1021.4 |
| 20260906062807 | 61 | 184 | 2.0 | 6.0 | 0.00 | 0.07 | 0.00 | 65 | 1021.2 |
| 20260906061807 | 62 | 269 | 2.0 | 6.0 | 0.00 | 0.07 | 0.00 | 64 | 1021.2 |
| 20260906061306 | 62 | 162 | 3.0 | 7.0 | 0.00 | 0.07 | 0.00 | 64 | 1021.2 |
| 20260906060806 | 62 | 250 | 3.0 | 7.0 | 0.00 | 0.07 | 0.00 | 64 | 1021.2 |
| 20260906060307 | 63 | 271 | 2.0 | 8.0 | 0.00 | 0.07 | 0.00 | 63 | 1021.2 |
| 20260906055807 | 65 | 136 | 3.0 | 8.0 | 0.00 | 0.07 | 0.00 | 60 | 1021.3 |
| 20260906055306 | 65 | 116 | 2.0 | 5.0 | 0.00 | 0.07 | 0.00 | 61 | 1021.3 |
| 20260906054806 | 64 | 267 | 2.0 | 9.0 | 0.00 | 0.07 | 0.00 | 63 | 1021.2 |
| 20260906054306 | 62 | 249 | 2.0 | 6.0 | 0.00 | 0.07 | 0.00 | 65 | 1021.2 |
| 20260906053806 | 61 | 266 | 2.0 | 5.0 | 0.00 | 0.07 | 0.00 | 65 | 1021.2 |
| 20260906052807 | 61 | 202 | 1.0 | 6.0 | 0.00 | 0.07 | 0.00 | 68 | 1021.2 |
| 20260906052307 | 61 | 268 | 2.0 | 6.0 | 0.00 | 0.07 | 0.00 | 67 | 1021.0 |
| 20260906051806 | 62 | 269 | 3.0 | 6.0 | 0.00 | 0.07 | 0.00 | 66 | 1021.0 |
| 20260906050806 | 62 | 225 | 2.0 | 5.0 | 0.00 | 0.07 | 0.00 | 66 | 1021.2 |
| 20260906050306 | 62 | 251 | 1.0 | 5.0 | 0.00 | 0.07 | 0.00 | 66 | 1021.1 |
| 20260906045307 | 62 | 205 | 1.0 | 3.0 | 0.00 | 0.07 | 0.00 | 66 | 1021.0 |
| 20260906044806 | 62 | 227 | 1.0 | 3.0 | 0.00 | 0.07 | 0.00 | 65 | 1021.1 |
| 20260906044307 | 62 | 292 | 1.0 | 5.0 | 0.00 | 0.07 | 0.00 | 65 | 1020.9 |
| 20260906043306 | 62 | 273 | 2.0 | 3.0 | 0.00 | 0.07 | 0.00 | 65 | 1020.9 |
| 20260906042806 | 62 | 203 | 1.0 | 2.0 | 0.00 | 0.07 | 0.00 | 66 | 1021.1 |
| 20260906042307 | 62 | 249 | 0.0 | 3.0 | 0.00 | 0.07 | 0.00 | 68 | 1021.0 |
| 20260906041306 | 62 | 42 | 1.0 | 6.0 | 0.00 | 0.07 | 0.00 | 67 | 1021.0 |
| 20260906040807 | 62 | 160 | 3.0 | 6.0 | 0.00 | 0.07 | 0.00 | 66 | 1021.1 |
| 20260906040307 | 63 | 291 | 1.0 | 3.0 | 0.00 | 0.07 | 0.00 | 65 | 1020.9 |
| 20260906035807 | 63 | 289 | 1.0 | 6.0 | 0.00 | 0.07 | 0.00 | 64 | 1020.9 |
| 20260906035308 | 63 | 270 | 1.0 | 6.0 | 0.00 | 0.07 | 0.00 | 65 | 1020.7 |
| 20260906034806 | 63 | 290 | 1.0 | 3.0 | 0.00 | 0.07 | 0.00 | 65 | 1020.8 |
| 20260906033806 | 62 | 292 | 1.0 | 3.0 | 0.00 | 0.07 | 0.00 | 66 | 1020.8 |
| 20260906032807 | 62 | 225 | 1.0 | 5.0 | 0.00 | 0.07 | 0.00 | 67 | 1020.9 |
| 20260906032307 | 62 | 223 | 3.0 | 6.0 | 0.00 | 0.07 | 0.00 | 66 | 1021.1 |
| 20260906031807 | 63 | 226 | 2.0 | 5.0 | 0.00 | 0.07 | 0.00 | 66 | 1021.1 |
| 20260906031306 | 63 | 268 | 2.0 | 5.0 | 0.00 | 0.07 | 0.00 | 64 | 1021.0 |
| 20260906030806 | 64 | 247 | 1.0 | 6.0 | 0.00 | 0.07 | 0.00 | 62 | 1021.2 |
| 20260906030306 | 65 | 224 | 2.0 | 6.0 | 0.00 | 0.07 | 0.00 | 62 | 1021.0 |
| 20260906025806 | 63 | 137 | 1.0 | 2.0 | 0.00 | 0.07 | 0.00 | 63 | 1021.2 |
| 20260906024807 | 62 | 244 | 2.0 | 5.0 | 0.00 | 0.07 | 0.00 | 70 | 1021.2 |
| 20260906024307 | 61 | 270 | 1.0 | 6.0 | 0.00 | 0.07 | 0.00 | 69 | 1021.4 |
| 20260906022806 | 61 | 228 | 2.0 | 7.0 | 0.00 | 0.07 | 0.00 | 67 | 1021.3 |
| 20260906022307 | 61 | 312 | 2.0 | 5.0 | 0.00 | 0.07 | 0.00 | 67 | 1021.7 |
| 20260906021807 | 60 | 273 | 1.0 | 5.0 | 0.00 | 0.07 | 0.00 | 69 | 1021.7 |
| 20260906020807 | 60 | 291 | 2.0 | 6.0 | 0.00 | 0.07 | 0.00 | 71 | 1021.8 |
| 20260906020307 | 60 | 250 | 2.0 | 7.0 | 0.00 | 0.08 | 0.00 | 72 | 1021.8 |
| 20260906015807 | 60 | 248 | 3.0 | 7.0 | 0.00 | 0.08 | 0.00 | 71 | 1021.8 |
| 20260906014808 | 60 | 247 | 1.0 | 3.0 | 0.00 | 0.08 | 0.00 | 69 | 1021.8 |
| 20260906014307 | 59 | 248 | 1.0 | 5.0 | 0.00 | 0.08 | 0.00 | 71 | 1021.7 |
| 20260906013807 | 59 | 249 | 2.0 | 6.0 | 0.00 | 0.08 | 0.00 | 72 | 1021.9 |
| 20260906013307 | 59 | 225 | 2.0 | 7.0 | 0.00 | 0.08 | 0.00 | 73 | 1022.0 |
| 20260906012807 | 60 | 226 | 1.0 | 5.0 | 0.00 | 0.08 | 0.00 | 72 | 1021.8 |
| 20260906012307 | 60 | 271 | 3.0 | 5.0 | 0.00 | 0.08 | 0.00 | 69 | 1021.8 |
| 20260906011807 | 60 | 292 | 2.0 | 3.0 | 0.00 | 0.08 | 0.00 | 70 | 1022.0 |
| 20260906011307 | 59 | 183 | 1.0 | 3.0 | 0.00 | 0.08 | 0.00 | 72 | 1021.9 |
| 20260906010809 | 59 | 288 | 2.0 | 5.0 | 0.00 | 0.08 | 0.00 | 72 | 1021.8 |
| 20260906010306 | 59 | 289 | 2.0 | 5.0 | 0.00 | 0.08 | 0.00 | 73 | 1021.9 |
| 20260906005307 | 60 | 203 | 1.0 | 3.0 | 0.00 | 0.08 | 0.00 | 71 | 1021.7 |
| 20260906004807 | 60 | 248 | 1.0 | 5.0 | 0.00 | 0.08 | 0.00 | 70 | 1021.6 |
| 20260906004307 | 60 | 270 | 2.0 | 5.0 | 0.00 | 0.08 | 0.00 | 72 | 1021.8 |
| 20260906003308 | 58 | 249 | 1.0 | 5.0 | 0.00 | 0.08 | 0.00 | 75 | 1021.6 |
| 20260906002807 | 58 | 245 | 2.0 | 7.0 | 0.00 | 0.08 | 0.00 | 75 | 1021.7 |
| 20260906001806 | 59 | 246 | 2.0 | 6.0 | 0.00 | 0.08 | 0.00 | 74 | 1021.5 |
| 20260906001306 | 60 | 270 | 2.0 | 6.0 | 0.00 | 0.08 | 0.00 | 72 | 1021.4 |
| 20260905235807 | 59 | 292 | 3.0 | 7.0 | 0.00 | 0.08 | 0.00 | 74 | 1021.3 |
| 20260905235307 | 59 | 248 | 3.0 | 6.0 | 0.00 | 0.08 | 0.00 | 74 | 1021.3 |
| 20260905234806 | 59 | 139 | 2.0 | 5.0 | 0.00 | 0.08 | 0.00 | 74 | 1021.3 |
| 20260905234307 | 59 | 268 | 2.0 | 6.0 | 0.00 | 0.08 | 0.00 | 74 | 1021.2 |
| 20260905233806 | 59 | 226 | 3.0 | 6.0 | 0.00 | 0.08 | 0.00 | 74 | 1021.2 |
| 20260905233307 | 59 | 184 | 4.0 | 8.0 | 0.00 | 0.08 | 0.00 | 74 | 1021.2 |
| 20260905232806 | 59 | 271 | 3.0 | 6.0 | 0.00 | 0.08 | 0.00 | 75 | 1021.2 |
| 20260905231807 | 57 | 248 | 2.0 | 8.0 | 0.00 | 0.08 | 0.00 | 79 | 1021.1 |
| 20260905231307 | 57 | 248 | 6.0 | 8.0 | 0.00 | 0.08 | 0.00 | 80 | 1021.0 |
| 20260905230806 | 56 | 269 | 3.0 | 7.0 | 0.00 | 0.08 | 0.00 | 82 | 1021.0 |
| 20260905230306 | 56 | 271 | 2.0 | 6.0 | 0.00 | 0.08 | 0.00 | 84 | 1020.8 |
| 20260905225806 | 56 | 225 | 2.0 | 5.0 | 0.00 | 0.08 | 0.08 | 84 | 1020.9 |
| 20260905225306 | 56 | 269 | 1.0 | 5.0 | 0.00 | 0.08 | 0.08 | 83 | 1021.0 |
| 20260905224806 | 55 | 292 | 1.0 | 5.0 | 0.00 | 0.08 | 0.08 | 84 | 1020.9 |
| 20260905224306 | 55 | 271 | 3.0 | 9.0 | 0.00 | 0.08 | 0.08 | 83 | 1020.9 |
| 20260905223307 | 55 | 231 | 2.0 | 5.0 | 0.00 | 0.08 | 0.08 | 84 | 1020.6 |
| 20260905222806 | 55 | 246 | 2.0 | 5.0 | 0.00 | 0.08 | 0.08 | 84 | 1020.4 |
| 20260905222307 | 55 | 250 | 1.0 | 6.0 | 0.00 | 0.08 | 0.08 | 85 | 1020.5 |
| 20260905221806 | 55 | 270 | 2.0 | 7.0 | 0.00 | 0.08 | 0.08 | 85 | 1020.4 |
| 20260905221308 | 55 | 248 | 3.0 | 7.0 | 0.00 | 0.08 | 0.08 | 84 | 1020.3 |
| 20260905220807 | 54 | 269 | 2.0 | 6.0 | 0.00 | 0.08 | 0.08 | 84 | 1020.3 |
| 20260905220307 | 54 | 270 | 1.0 | 3.0 | 0.00 | 0.08 | 0.08 | 84 | 1020.0 |
| 20260905215807 | 54 | 270 | 1.0 | 7.0 | 0.00 | 0.08 | 0.08 | 85 | 1020.0 |
| 20260905215307 | 54 | 202 | 2.0 | 7.0 | 0.00 | 0.08 | 0.08 | 85 | 1020.0 |